Location: Lake Lucerne
(45.5315°N, 88.8489°W)
Time: 20:29:21
(UTC-05:00)

ARIANE 6 FM1 Upper Stage - Pass Details

Date: 25 September 2024
Orbit: 563 x 594 km, 62.0° (Epoch: 09 October)

Event Time Altitude Azimuth Distance (km) Brightness Sun altitude
Rises 21:42:08 0° 280° (W) 2,797 7.2 -30.2°
Reaches altitude 10° 21:45:26 10° 307° (NW) 1,908 6.3 -30.7°
Maximum altitude 21:47:39 14° 338° (NNW) 1,686 5.7 -31.0°
Drops below altitude 10° 21:49:53 10° 9° (N) 1,922 5.6 -31.3°
Enters shadow 21:49:53 10° 9° (N) 1,922 5.6 -31.3°
